Location: Beeston
(52.7000°N, 0.8167°E)
Time: 11:16:02
(UTC+00:00)

Spot 2 Rocket - Pass Details

Date: 15 May 2026
Orbit: 752 x 765 km, 98.3° (Epoch: 5 June)

Event Time Altitude Azimuth Distance (km) Brightness Sun altitude
Exits shadow 21:03:00 - 181° (S) 2,839 6.0 -9.4°
Reaches altitude 10° 21:04:27 10° 185° (S) 2,274 5.5 -9.5°
Maximum altitude 21:09:19 50° 260° (W) 957 4.2 -10.0°
Drops below altitude 10° 21:14:14 10° 337° (NNW) 2,297 7.4 -10.4°
Sets 21:16:37 0° 342° (NNW) 3,228 8.3 -10.7°
